Regional Weather Roundup
Issued by NWS

Home | Current Version | Previous Version | Text Only | Print | Product List | Glossary Off
Versions: 1 2 3 4 5 6 7 8 9 10 11 12 13 14 15 16 17 18 19 20 21 22 23 24 25 26 27 28 29 30 31 32 33 34 35 36 37 38 39 40 41 42 43 44 45 46 47 48 49 50

000
ASUS45 KCYS 290810
RWRWY

WYOMING REGIONAL WEATHER ROUNDUP
NATIONAL WEATHER SERVICE CHEYENNE WY
100 AM MST MON DEC 29 2014

NOTE:  "FAIR" INDICATES FEW OR NO CLOUDS BELOW 12,000 FEET
WITH NO SIGNIFICANT WEATHER AND/OR OBSTRUCTIONS TO VISIBILITY.

WYZ001-290900-
YELLOWSTONE NATIONAL PARK

CITY           SKY/WX    TMP DP  RH WIND       PRES   REMARKS
LK YELLOWSTONE   N/A      9   5  84 CALM      29.94F
W YELLOWSTONE  NOT AVBL

$$
WYZ002>013-054>058-071-098>099-290900-
NORTHERN WYOMING

CITY           SKY/WX    TMP DP  RH WIND       PRES   REMARKS
JACKSON        CLOUDY     9   9 100 CALM      29.98S
CODY           CLOUDY    10   7  85 N15G22    30.14S WCI  -6
GREYBULL       FAIR      14   6  70 NW12      30.15R WCI   0
WORLAND        CLOUDY    14   8  77 NW8       30.16R WCI   3
SHERIDAN       LGT SNOW  12   8  84 NW14      30.24R FOG     WCI  -3
BUFFALO        CLOUDY    10   6  84 N24G38    30.12R WCI -10
GILLETTE       LGT SNOW  15  12  88 N15       30.12R FOG     WCI   0
HULETT           N/A    N/A N/A N/A MISG        N/A
NEWCASTLE      FAIR      19  16  86 N7        30.10R WCI  10

$$
WYZ014>020-022>026-101>103-290900-
CENTRAL WYOMING

CITY           SKY/WX    TMP DP  RH WIND       PRES   REMARKS
BIG PINEY      MOCLDY    -8 -12  83 CALM      29.95S
PINEDALE       CLOUDY    -8 -11  84 CALM      29.96S FOG
DUBOIS         NOT AVBL
LANDER         LGT SNOW  13  10  88 S3        30.05R VSB 3/4
RIVERTON       CLOUDY    15   6  67 N17G26    30.04R WCI  -1
CASPER         CLOUDY    15  10  80 NE14      30.05R WCI   0
DOUGLAS        LGT SNOW  18  14  84 NE6       30.06R FOG     WCI  10

$$
WYZ021-027>030-104>119-290900-
SOUTHERN WYOMING

CITY           SKY/WX    TMP DP  RH WIND       PRES   REMARKS
EVANSTON       FOG       11   7  84 E6        29.92S VSB 1/4 WCI   1
KEMMERER       FAIR       3   1  92 NW3       29.93S
FORT BRIDGER   FLURRIES  11  10  93 W6        29.96S WCI   2
ROCK SPRINGS   FAIR      11   7  84 NE3       29.95S
DIXON          LGT SNOW  11   8  88 CALM      29.98F
RAWLINS        LGT SNOW  13  10  88 NW6       29.94S FOG     WCI   4
SARATOGA       LGT SNOW  10   7  85 CALM      29.94S
LARAMIE        CLOUDY    11   6  81 NW10      29.89S WCI  -3
CHEYENNE       MOCLDY    14   6  70 W13       29.93R WCI   0
TORRINGTON     LGT SNOW  17  13  84 N13       30.05R FOG     WCI   4
PINE BLUFFS    CLOUDY    14  10  85 NW3       29.97S

$$



USA.gov is the U.S. government's official web portal to all federal, state and local government web resources and services.